WZZ2PF EPWA-LEMH

Flight info

Callsign WZZ2PF
Flight time N/A
Altitude 36000
Route EVINA N744 NAVUR DCT BAVOK DCT MALUG/N0438F350 DCT LAMPO DCT APRIV DCT GOLAS DCT PIDAD DCT TALEP DCT RARQU DCT BALEN UT250 RIXOT
Aircraft A21N/M-SDE3FGHIRWY/LB1

Departure

Time N/A
Airport Warsaw Chopin Airport (EPWA)

Arrival

Time 2026-04-09 10:42
Airport Menorca Airport (LEMH)
Time Latitude Longitude Altitude Speed Heading
2026-04-09 08:53 48.93253 16.24685 36198 ft 464 kts 237°
2026-04-09 08:54 48.89035 16.17288 36193 ft 463 kts 237°
2026-04-09 08:54 48.84816 16.09910 36202 ft 463 kts 237°
2026-04-09 08:55 48.80610 16.02570 36196 ft 463 kts 237°
2026-04-09 08:55 48.76414 15.95273 36192 ft 462 kts 237°
2026-04-09 08:56 48.72180 15.87927 36184 ft 462 kts 237°
2026-04-09 08:56 48.67971 15.80646 36179 ft 462 kts 237°
2026-04-09 08:57 48.63757 15.73376 36179 ft 461 kts 237°
2026-04-09 08:57 48.59531 15.66103 36176 ft 461 kts 237°
2026-04-09 08:58 48.55296 15.58838 36172 ft 461 kts 237°
2026-04-09 08:58 48.51075 15.51616 36173 ft 461 kts 237°
2026-04-09 08:59 48.46864 15.44433 36168 ft 460 kts 237°
2026-04-09 08:59 48.43883 15.39356 36165 ft 460 kts 237°
2026-04-09 09:00 48.39652 15.32171 36167 ft 460 kts 236°
2026-04-09 09:00 48.35407 15.24977 36173 ft 460 kts 236°
2026-04-09 09:01 48.31172 15.17826 36179 ft 459 kts 236°
2026-04-09 09:01 48.26956 15.10724 36187 ft 458 kts 236°
2026-04-09 09:02 48.22717 15.03604 36189 ft 459 kts 236°
2026-04-09 09:02 48.18446 14.96451 36195 ft 459 kts 236°
2026-04-09 09:03 48.14217 14.89384 36192 ft 458 kts 236°
2026-04-09 09:03 48.09964 14.82302 36192 ft 457 kts 236°
2026-04-09 09:04 48.05733 14.75271 36189 ft 456 kts 236°
2026-04-09 09:04 48.01500 14.68254 36186 ft 456 kts 236°
2026-04-09 09:05 47.97274 14.61264 36182 ft 456 kts 236°
2026-04-09 09:05 47.93038 14.54275 36179 ft 455 kts 236°
2026-04-09 09:06 47.88791 14.47288 36171 ft 455 kts 236°
2026-04-09 09:06 47.84544 14.40323 36170 ft 455 kts 236°
2026-04-09 09:07 47.80284 14.33349 36171 ft 455 kts 235°
2026-04-09 09:07 47.76032 14.26411 36167 ft 457 kts 235°
2026-04-09 09:08 47.71767 14.19468 36161 ft 456 kts 235°
2026-04-09 09:08 47.67513 14.12569 36147 ft 454 kts 235°
2026-04-09 09:09 47.63255 14.05673 36137 ft 454 kts 236°
2026-04-09 09:09 47.58986 13.98778 36128 ft 453 kts 236°
2026-04-09 09:10 47.54760 13.91967 36129 ft 453 kts 235°
2026-04-09 09:10 47.50491 13.85108 36121 ft 453 kts 235°
2026-04-09 09:11 47.46234 13.78288 36113 ft 454 kts 235°
2026-04-09 09:11 47.41960 13.71456 36100 ft 452 kts 235°
2026-04-09 09:12 47.37713 13.64686 36101 ft 452 kts 235°
2026-04-09 09:12 47.33447 13.57902 36107 ft 451 kts 235°
2026-04-09 09:13 47.29190 13.51149 36117 ft 451 kts 235°
2026-04-09 09:13 47.24949 13.44439 36118 ft 450 kts 235°
2026-04-09 09:14 47.20696 13.37727 36105 ft 449 kts 235°
2026-04-09 09:14 47.16444 13.31032 36096 ft 449 kts 234°
2026-04-09 09:15 47.12164 13.24311 36092 ft 449 kts 234°
2026-04-09 09:15 47.07910 13.17644 36088 ft 449 kts 234°
2026-04-09 09:16 47.03672 13.11023 36091 ft 449 kts 234°
2026-04-09 09:16 47.01518 13.07664 35887 ft 450 kts 234°
2026-04-09 09:16 46.99386 13.04343 35657 ft 449 kts 234°
2026-04-09 09:16 46.97255 13.01027 35432 ft 449 kts 234°
2026-04-09 09:17 46.95110 12.97692 35204 ft 450 kts 234°
2026-04-09 09:17 46.90834 12.91056 35110 ft 450 kts 234°
2026-04-09 09:18 46.86560 12.84433 35105 ft 451 kts 234°
2026-04-09 09:18 46.82245 12.77768 35114 ft 450 kts 233°
2026-04-09 09:19 46.77968 12.71169 35136 ft 450 kts 233°
2026-04-09 09:19 46.73671 12.64553 35127 ft 451 kts 233°
2026-04-09 09:20 46.69352 12.57946 35148 ft 451 kts 233°
2026-04-09 09:20 46.65023 12.51432 35146 ft 451 kts 233°
2026-04-09 09:21 46.60671 12.44878 35153 ft 452 kts 233°
2026-04-09 09:21 46.56300 12.38295 35152 ft 452 kts 233°
2026-04-09 09:22 46.51958 12.31762 35148 ft 453 kts 232°
2026-04-09 09:22 46.47598 12.25219 35146 ft 453 kts 232°
2026-04-09 09:23 46.43222 12.18667 35152 ft 453 kts 232°
2026-04-09 09:23 46.38842 12.12125 35148 ft 453 kts 232°
2026-04-09 09:24 46.34468 12.05606 35150 ft 453 kts 232°
2026-04-09 09:24 46.30079 11.99080 35140 ft 454 kts 232°
2026-04-09 09:25 46.25705 11.92586 35144 ft 454 kts 232°
2026-04-09 09:25 46.21302 11.86065 35140 ft 454 kts 232°
2026-04-09 09:26 46.16914 11.79573 35130 ft 454 kts 232°
2026-04-09 09:26 46.12521 11.73097 35129 ft 455 kts 232°
2026-04-09 09:27 46.07966 11.66790 35108 ft 457 kts 228°
2026-04-09 09:27 46.03276 11.60612 35118 ft 456 kts 229°
2026-04-09 09:28 45.98606 11.54456 35116 ft 457 kts 229°
2026-04-09 09:28 45.93959 11.48331 35111 ft 456 kts 229°
2026-04-09 09:29 45.89291 11.42192 35088 ft 456 kts 229°
2026-04-09 09:29 45.84609 11.36045 35086 ft 456 kts 229°
2026-04-09 09:30 45.79935 11.29920 35086 ft 457 kts 227°
2026-04-09 09:30 45.75238 11.23784 35089 ft 457 kts 227°
2026-04-09 09:31 45.70555 11.17681 35095 ft 457 kts 227°
2026-04-09 09:31 45.65861 11.11575 35091 ft 458 kts 227°
2026-04-09 09:32 45.61179 11.05500 35092 ft 457 kts 227°
2026-04-09 09:32 45.56482 10.99420 35099 ft 457 kts 227°
2026-04-09 09:33 45.51760 10.93325 35099 ft 457 kts 227°
2026-04-09 09:33 45.47082 10.87298 35098 ft 456 kts 227°
2026-04-09 09:34 45.42375 10.81247 35096 ft 456 kts 227°
2026-04-09 09:34 45.35315 10.72201 35103 ft 456 kts 227°
2026-04-09 09:35 45.30608 10.66185 35099 ft 457 kts 227°
2026-04-09 09:35 45.25912 10.60199 35104 ft 457 kts 227°
2026-04-09 09:36 45.21186 10.54186 35096 ft 456 kts 227°
2026-04-09 09:36 45.16465 10.48196 35093 ft 456 kts 227°
2026-04-09 09:37 45.11764 10.42246 35097 ft 455 kts 227°
2026-04-09 09:37 45.07073 10.36318 35096 ft 455 kts 227°
2026-04-09 09:38 45.02330 10.30340 35104 ft 454 kts 226°
2026-04-09 09:38 44.97611 10.24405 35100 ft 454 kts 226°
2026-04-09 09:39 44.92902 10.18493 35107 ft 455 kts 226°
2026-04-09 09:39 44.88181 10.12581 35101 ft 455 kts 226°
2026-04-09 09:40 44.83454 10.06672 35102 ft 455 kts 226°
2026-04-09 09:40 44.78756 10.00808 35099 ft 454 kts 226°
2026-04-09 09:41 44.74018 9.94900 35098 ft 454 kts 226°
2026-04-09 09:41 44.69305 9.89049 35100 ft 453 kts 225°
2026-04-09 09:42 44.64446 9.83418 35092 ft 453 kts 223°
2026-04-09 09:42 44.59583 9.77876 35087 ft 453 kts 223°
2026-04-09 09:43 44.54688 9.72295 35088 ft 453 kts 223°
2026-04-09 09:43 44.49811 9.66738 35091 ft 453 kts 223°
2026-04-09 09:44 44.44952 9.61231 35095 ft 453 kts 223°
2026-04-09 09:44 44.40026 9.55770 35096 ft 453 kts 223°
2026-04-09 09:45 44.35074 9.50293 35098 ft 452 kts 223°
2026-04-09 09:45 44.30183 9.44876 35093 ft 452 kts 223°
2026-04-09 09:46 44.25252 9.39420 35092 ft 451 kts 223°
2026-04-09 09:46 44.20372 9.34026 35095 ft 451 kts 222°
2026-04-09 09:47 44.15463 9.28611 35092 ft 451 kts 222°
2026-04-09 09:47 44.10550 9.23206 35088 ft 451 kts 222°
2026-04-09 09:48 44.05638 9.17812 35095 ft 451 kts 222°
2026-04-09 09:48 44.00745 9.12450 35093 ft 450 kts 222°
2026-04-09 09:49 43.95809 9.07051 35097 ft 450 kts 222°
2026-04-09 09:49 43.90911 9.01704 35093 ft 450 kts 222°
2026-04-09 09:50 43.86010 8.96364 35087 ft 449 kts 221°
2026-04-09 09:50 43.81117 8.91040 35090 ft 449 kts 222°
2026-04-09 09:51 43.76218 8.85713 35090 ft 449 kts 222°
2026-04-09 09:51 43.71305 8.80393 35088 ft 449 kts 221°
2026-04-09 09:52 43.66096 8.75625 35085 ft 454 kts 211°
2026-04-09 09:52 43.60190 8.72529 35082 ft 459 kts 198°
2026-04-09 09:53 43.53830 8.71131 35090 ft 462 kts 190°
2026-04-09 09:53 43.47596 8.69313 35084 ft 457 kts 202°
2026-04-09 09:54 43.41940 8.65576 35084 ft 450 kts 217°
2026-04-09 09:54 43.37114 8.60222 35089 ft 446 kts 226°
2026-04-09 09:55 43.32527 8.54521 35085 ft 445 kts 226°
2026-04-09 09:55 43.27950 8.48848 35082 ft 445 kts 226°
2026-04-09 09:56 43.23343 8.43169 35082 ft 446 kts 226°
2026-04-09 09:56 43.18748 8.37527 35080 ft 445 kts 226°
2026-04-09 09:57 43.14134 8.31877 35078 ft 445 kts 225°
2026-04-09 09:57 43.09546 8.26271 35079 ft 444 kts 225°
2026-04-09 09:58 43.04939 8.20656 35078 ft 444 kts 225°
2026-04-09 09:58 43.00316 8.15032 35081 ft 444 kts 225°
2026-04-09 09:59 42.95716 8.09447 35080 ft 444 kts 225°
2026-04-09 09:59 42.91122 8.03880 35077 ft 444 kts 225°
2026-04-09 10:00 42.86508 7.98299 35082 ft 444 kts 225°
2026-04-09 10:00 42.81904 7.92747 35164 ft 444 kts 225°
2026-04-09 10:01 42.77295 7.87201 35110 ft 443 kts 225°
2026-04-09 10:01 42.72668 7.81640 35095 ft 442 kts 225°
2026-04-09 10:02 42.68084 7.76142 35092 ft 442 kts 225°
2026-04-09 10:02 42.63494 7.70648 35091 ft 442 kts 225°
2026-04-09 10:03 42.58891 7.65151 35094 ft 441 kts 225°
2026-04-09 10:03 42.54283 7.59660 35095 ft 441 kts 225°
2026-04-09 10:04 42.49691 7.54199 35093 ft 441 kts 225°
2026-04-09 10:04 42.45083 7.48727 35093 ft 440 kts 225°
2026-04-09 10:05 42.40483 7.43276 35094 ft 440 kts 225°
2026-04-09 10:05 42.35911 7.37871 35094 ft 439 kts 225°
2026-04-09 10:06 42.31302 7.32432 35096 ft 439 kts 225°
2026-04-09 10:06 42.26702 7.27013 35096 ft 439 kts 225°
2026-04-09 10:07 42.22110 7.21615 35097 ft 439 kts 225°
2026-04-09 10:07 42.17528 7.16233 35097 ft 438 kts 225°
2026-04-09 10:08 42.12958 7.10873 35098 ft 437 kts 225°
2026-04-09 10:08 42.08375 7.05504 35099 ft 436 kts 225°
2026-04-09 10:09 42.03796 7.00154 35098 ft 437 kts 225°
2026-04-09 10:09 41.99258 6.94768 35101 ft 436 kts 226°
2026-04-09 10:10 41.94787 6.89290 35101 ft 435 kts 227°
2026-04-09 10:10 41.90338 6.83833 35105 ft 435 kts 227°
2026-04-09 10:11 41.85880 6.78379 35103 ft 434 kts 227°
2026-04-09 10:11 41.81447 6.72971 35109 ft 433 kts 227°
2026-04-09 10:12 41.76991 6.67545 35109 ft 432 kts 227°
2026-04-09 10:12 41.72545 6.62140 35109 ft 432 kts 227°
2026-04-09 10:13 41.68100 6.56752 35109 ft 432 kts 227°
2026-04-09 10:13 41.63680 6.51398 35112 ft 431 kts 227°
2026-04-09 10:14 41.59227 6.46017 35112 ft 430 kts 227°
2026-04-09 10:14 41.54795 6.40673 35118 ft 430 kts 227°
2026-04-09 10:15 41.50378 6.35355 35117 ft 430 kts 227°
2026-04-09 10:15 41.45933 6.30017 35119 ft 430 kts 226°
2026-04-09 10:16 41.41519 6.24723 35119 ft 429 kts 226°
2026-04-09 10:16 41.37091 6.19423 35120 ft 429 kts 226°
2026-04-09 10:17 41.32651 6.14119 34827 ft 427 kts 226°
2026-04-09 10:17 41.30450 6.11495 34555 ft 424 kts 226°
2026-04-09 10:17 41.28277 6.08904 34277 ft 422 kts 226°
2026-04-09 10:18 41.26108 6.06319 34000 ft 419 kts 226°
2026-04-09 10:18 41.23922 6.03717 33717 ft 419 kts 226°
2026-04-09 10:18 41.21780 6.01167 33445 ft 420 kts 226°
2026-04-09 10:18 41.19585 5.98558 33167 ft 421 kts 226°
2026-04-09 10:19 41.17397 5.95961 32836 ft 421 kts 226°
2026-04-09 10:19 41.15228 5.93387 32446 ft 418 kts 226°
2026-04-09 10:19 41.13088 5.90853 32135 ft 417 kts 226°
2026-04-09 10:19 41.10932 5.88300 31746 ft 414 kts 226°
2026-04-09 10:20 41.08800 5.85775 31311 ft 412 kts 226°
2026-04-09 10:20 41.06667 5.83251 30871 ft 409 kts 226°
2026-04-09 10:20 41.04568 5.80765 30426 ft 406 kts 226°
2026-04-09 10:20 41.02468 5.78280 29973 ft 403 kts 226°
2026-04-09 10:21 41.00403 5.75843 29512 ft 400 kts 226°
2026-04-09 10:21 40.98323 5.73395 29050 ft 397 kts 226°
2026-04-09 10:21 40.96302 5.70946 28584 ft 393 kts 228°
2026-04-09 10:21 40.94438 5.68352 28129 ft 387 kts 232°
2026-04-09 10:22 40.92774 5.65639 27681 ft 383 kts 237°
2026-04-09 10:22 40.91221 5.62784 27250 ft 379 kts 238°
2026-04-09 10:22 40.89716 5.59974 26820 ft 376 kts 238°
2026-04-09 10:22 40.88214 5.57162 26376 ft 373 kts 238°
2026-04-09 10:23 40.86732 5.54392 25930 ft 371 kts 238°
2026-04-09 10:23 40.85252 5.51628 25486 ft 368 kts 238°
2026-04-09 10:23 40.83783 5.48886 25041 ft 366 kts 238°
2026-04-09 10:23 40.82314 5.46148 24594 ft 364 kts 238°
2026-04-09 10:24 40.80853 5.43430 24150 ft 362 kts 238°
2026-04-09 10:24 40.79411 5.40751 23712 ft 360 kts 238°
2026-04-09 10:24 40.77975 5.38084 23274 ft 359 kts 237°
2026-04-09 10:24 40.76539 5.35421 22834 ft 357 kts 237°
2026-04-09 10:25 40.75093 5.32738 22386 ft 356 kts 236°
2026-04-09 10:25 40.73674 5.30112 21954 ft 355 kts 236°
2026-04-09 10:25 40.72242 5.27462 21515 ft 353 kts 236°
2026-04-09 10:25 40.70830 5.24852 21078 ft 352 kts 236°
2026-04-09 10:26 40.69404 5.22221 20648 ft 351 kts 236°
2026-04-09 10:26 40.67992 5.19614 20211 ft 349 kts 236°
2026-04-09 10:26 40.66584 5.17018 19778 ft 348 kts 236°
2026-04-09 10:26 40.65185 5.14441 19346 ft 347 kts 236°
2026-04-09 10:27 40.63801 5.11890 18914 ft 345 kts 236°
2026-04-09 10:27 40.62405 5.09321 18482 ft 344 kts 236°
2026-04-09 10:27 40.61019 5.06773 18050 ft 343 kts 236°
2026-04-09 10:27 40.59637 5.04234 17623 ft 342 kts 236°
2026-04-09 10:28 40.58268 5.01719 17195 ft 340 kts 235°
2026-04-09 10:28 40.56888 4.99190 16769 ft 339 kts 235°
2026-04-09 10:28 40.55521 4.96686 16352 ft 337 kts 235°
2026-04-09 10:28 40.54153 4.94182 15920 ft 335 kts 235°
2026-04-09 10:29 40.52808 4.91716 15493 ft 333 kts 235°
2026-04-09 10:29 40.51471 4.89270 15083 ft 331 kts 235°
2026-04-09 10:29 40.50122 4.86804 14671 ft 330 kts 235°
2026-04-09 10:29 40.48802 4.84388 14250 ft 328 kts 235°
2026-04-09 10:30 40.47464 4.81944 13821 ft 327 kts 235°
2026-04-09 10:30 40.46152 4.79556 13407 ft 325 kts 235°
2026-04-09 10:30 40.44828 4.77146 12986 ft 323 kts 235°
2026-04-09 10:30 40.43530 4.74787 12594 ft 321 kts 235°
2026-04-09 10:31 40.42220 4.72404 12167 ft 320 kts 235°
2026-04-09 10:31 40.40930 4.70063 11730 ft 319 kts 235°
2026-04-09 10:31 40.39589 4.67776 11330 ft 318 kts 229°
2026-04-09 10:31 40.37962 4.65786 10911 ft 317 kts 219°
2026-04-09 10:32 40.36167 4.64149 10517 ft 316 kts 215°
2026-04-09 10:32 40.34356 4.62605 10292 ft 306 kts 214°
2026-04-09 10:32 40.32589 4.61110 10162 ft 294 kts 214°
2026-04-09 10:32 40.30912 4.59684 9872 ft 289 kts 214°
2026-04-09 10:33 40.29221 4.58241 9486 ft 287 kts 215°
2026-04-09 10:33 40.27573 4.56830 9132 ft 285 kts 215°
2026-04-09 10:33 40.25920 4.55409 8768 ft 284 kts 215°
2026-04-09 10:33 40.24266 4.53990 8408 ft 282 kts 215°
2026-04-09 10:34 40.22639 4.52595 8052 ft 280 kts 215°
2026-04-09 10:34 40.21022 4.51207 7697 ft 277 kts 215°
2026-04-09 10:34 40.19425 4.49839 7347 ft 275 kts 215°
2026-04-09 10:34 40.17841 4.48480 7018 ft 273 kts 215°
2026-04-09 10:35 40.16239 4.47108 6668 ft 272 kts 215°
2026-04-09 10:35 40.14672 4.45763 6320 ft 270 kts 215°
2026-04-09 10:35 40.13108 4.44426 5972 ft 269 kts 215°
2026-04-09 10:35 40.11551 4.43096 5614 ft 267 kts 215°
2026-04-09 10:36 40.10017 4.41787 5339 ft 261 kts 215°
2026-04-09 10:36 40.08510 4.40501 5111 ft 254 kts 214°
2026-04-09 10:36 40.05881 4.37737 4608 ft 243 kts 242°
2026-04-09 10:37 40.05435 4.35633 4235 ft 242 kts 270°
2026-04-09 10:37 40.05751 4.33510 3916 ft 239 kts 290°
2026-04-09 10:37 40.06380 4.31525 3612 ft 238 kts 291°
2026-04-09 10:37 40.06860 4.29473 3274 ft 237 kts 272°
2026-04-09 10:38 40.06428 4.27434 2993 ft 238 kts 235°
2026-04-09 10:38 40.05166 4.26053 2965 ft 242 kts 206°
2026-04-09 10:38 40.03565 4.25393 2963 ft 236 kts 192°
2026-04-09 10:38 40.01975 4.25062 2954 ft 228 kts 188°
2026-04-09 10:39 40.00401 4.24784 2811 ft 228 kts 189°
2026-04-09 10:39 39.98836 4.24481 2528 ft 226 kts 189°
2026-04-09 10:39 39.97325 4.24165 2233 ft 215 kts 190°
2026-04-09 10:39 39.95903 4.23865 2047 ft 197 kts 190°
2026-04-09 10:40 39.94585 4.23589 1793 ft 183 kts 190°
2026-04-09 10:40 39.93386 4.23341 1536 ft 169 kts 190°
2026-04-09 10:40 39.92275 4.23110 1284 ft 153 kts 189°
2026-04-09 10:40 39.91269 4.22902 1071 ft 141 kts 190°
2026-04-09 10:41 39.90316 4.22703 914 ft 140 kts 189°
2026-04-09 10:41 39.89345 4.22501 746 ft 139 kts 189°
2026-04-09 10:41 39.88394 4.22302 565 ft 138 kts 189°
2026-04-09 10:41 39.87441 4.22110 366 ft 136 kts 190°
2026-04-09 10:42 39.86542 4.21921 292 ft 118 kts 189°
2026-04-09 10:42 39.85898 4.21793 286 ft 71 kts 189°
2026-04-09 10:42 39.85511 4.21796 281 ft 41 kts 160°
2026-04-09 10:42 39.85413 4.21916 280 ft 17 kts 45°
2026-04-09 10:43 39.85517 4.21951 281 ft 14 kts
2026-04-09 10:43 39.85617 4.21973 283 ft 14 kts
2026-04-09 10:43 39.85712 4.21992 284 ft 13 kts
2026-04-09 10:43 39.85812 4.22011 285 ft 16 kts
2026-04-09 10:44 39.85944 4.22039 286 ft 21 kts
2026-04-09 10:44 39.86091 4.22068 287 ft 20 kts
2026-04-09 10:44 39.86191 4.22141 288 ft 15 kts 90°
2026-04-09 10:44 39.86212 4.22266 287 ft 14 kts 15°
2026-04-09 10:45 39.86293 4.22283 287 ft 10 kts
2026-04-09 10:45 39.86365 4.22295 288 ft 10 kts
2026-04-09 10:45 39.86428 4.22309 288 ft 1 kts 12°
2026-04-09 10:45 39.86430 4.22311 288 ft 1 kts 36°
2026-04-09 10:46 39.86433 4.22325 288 ft 2 kts 84°
2026-04-09 10:46 39.86429 4.22365 288 ft 5 kts 102°
2026-04-09 10:46 39.86426 4.22386 288 ft 1 kts 98°
2026-04-09 10:46 39.86425 4.22391 288 ft 0 kts 98°